Regional Weather Roundup
Issued by NWS Newport/Morehead, NC

Current Version | Previous Version | Text Only | Print | Product List | Glossary Off
Versions: 1 2 3 4 5 6 7 8 9 10 11 12 13 14 15 16 17 18 19 20 21 22 23 24 25 26 27 28 29 30 31 32 33 34 35 36 37 38 39 40 41 42 43 44 45 46 47 48 49 50

000
ASUS42 KMHX 222322
RWRMHX
WEATHER ROUNDUP FOR EASTERN NORTH CAROLINA
NATIONAL WEATHER SERVICE NEWPORT/MOREHEAD CITY NC
600 PM EST SAT NOV 22 2014

NOTE: "FAIR" INDICATES FEW OR NO CLOUDS BELOW 12,000 FEET
WITH NO SIGNIFICANT WEATHER AND/OR OBSTRUCTIONS TO VISIBILITY

NCZ015>017-031-032-045>047-102-103-230000-
NORTH COAST

CITY           SKY/WX    TMP DP  RH WIND       PRES   REMARKS
EDENTON        PTCLDY    42  32  69 CALM      30.41S
ELIZABETH CITY PTCLDY    47  32  56 S6        30.41S
KITTY HAWK     PTCLDY    46  37  72 S3        30.40S
MANTEO         PTCLDY    46  40  79 S5        30.42S

$$

NCZ045>047-081-094-103-104-230000-
CENTRAL COAST

CITY           SKY/WX    TMP DP  RH WIND       PRES   REMARKS
FRISCO         CLEAR     46  44  93 N5        30.42S
SWANQUARTER      N/A     43 N/A N/A SE2       30.39S

$$

NCZ095-097-098-100-101-230000-
SOUTHERN COAST

CITY           SKY/WX    TMP DP  RH WIND       PRES   REMARKS
BEAUFORT       CLEAR     46  38  73 NE5       30.42R
CEDAR ISLAND     N/A     48 N/A N/A NE2       30.44S
JACKSONVILLE   CLEAR     49  38  65 CALM      30.40F
PINEY ISLAND   CLEAR     49  41  74 E5        30.42S
WILMINGTON     CLEAR     50  42  74 E3        30.39F


$$

NCZ011>013-027>030-043-044-078>080-089-090>093-098-230000-
COASTAL PLAIN

CITY           SKY/WX    TMP DP  RH WIND       PRES   REMARKS
AHOSKIE        CLEAR     35  22  58 CALM      30.40F
CLINTON        CLEAR     44  31  60 CALM      30.39F
ELIZABETHTOWN  CLEAR     47  35  60 CALM      30.37F
GOLDSBORO      CLEAR     42  29  59 CALM      30.37F
GREENVILLE     CLEAR     39  25  56 CALM      30.39F
HAVELOCK       CLEAR     48  37  65 CALM      30.42S
KENANSVILLE    CLEAR     38  32  77 CALM      30.39F
KINSTON        CLEAR     41  28  60 CALM      30.40F
NEW BERN       CLEAR     44  34  67 CALM      30.42S
RICHLANDS      CLEAR     43  34  70 CALM      30.40F
ROCKY MOUNT    CLEAR     39  24  55 CALM      30.39F
WASHINGTON     CLEAR     39  25  58 CALM      30.40F
WHITEVILLE     CLEAR     49  40  70 CALM      30.37F

$$

AMZ130-135-150-152-154-156-158-170-250-252-270-ANZ085-086-088-633-658-670-230000-
MARINE OBSERVATIONS

STATION/POSITION TIME  TEMP    WIND        PRES    WAVE   SWELL
                       AIR SEA DIR/SP/G            HT/PER HT/PER
                 (UTC) (F)     (DEG/KT/KT) (MB)    (FT/S) (FT/S)
CHESAPEAKE LIGHT 2300   51     220/ 15/ 16 1029.6
64 E VA BEACH    2300   53 60  210/ 14/ 16 1029.1    2/ 8   2/ 8
DUCK             2300   49 54  170/  8/  9 1028.8
2 E DUCK         2300      56                N/A     2/ 6
10 NE DUCK       2300      57                N/A     2/ 8
OREGON INLET     2300   47 52  160/  1/  2 1029.8
13E OREGON INLT  2300      61                N/A     2/ 6
HATTERAS CG      2300   49 52  350/  3/  4 1030.3
DIAMOND BUOY     2300   59      60/  2/  4 1030.0    3/ 8   3/ 8
17 S OCRACOKE    NOT AVBL
CAPE LOOKOUT     2300   51      10/  5/  6 1029.7
BEAUFORT LAB     2300   48 53   30/  4/  5 1028.9
30 SE NEW RIVER  2300   58 68   60/ 12/ 14 1029.0    3/ 9   2/ 9
5 SE WRIGHTSVLE  2300   53 60  100/ 12/ 14 1028.8
225 S CAPE HAT   2236   65 73  100/ 10/ 16 1029.2    5/ 8   5/ 8
41 SE CHARLESTON 2300   68 76  100/ 14/ 17 1026.3    4/ 5   3/ 9

$$



USA.gov is the U.S. government's official web portal to all federal, state and local government web resources and services.